Regional Weather Roundup
Issued by NWS

Home | Current Version | Previous Version | Text Only | Print | Product List | Glossary Off
Versions: 1 2 3 4 5 6 7 8 9 10 11 12 13 14 15 16 17 18 19 20 21 22 23 24 25 26 27 28 29 30 31 32 33 34 35 36 37 38 39 40 41 42 43 44 45 46 47 48 49 50

258
ASUS45 KSLC 241910
RWRUT

UTAH REGIONAL WEATHER ROUNDUP
NATIONAL WEATHER SERVICE SALT LAKE CITY UT
100 PM MDT TUE APR 24 2018

UTZ001>011-023>025-242000-

NORTHERN UTAH

CITY           SKY/WX    TMP DP  RH WIND       PRES   REMARKS
BRIGHAM CITY   SUNNY     58  25  27 NE8G17    30.33S
DUGWAY         MOSUNNY   60  29  30 VRB2      30.29F
HILL AFB       NOT AVBL
LOGAN          MOSUNNY   55  30  38 E12G18    30.34F
OGDEN          SUNNY     58  26  29 N6        30.30F
SALT LAKE CITY MOSUNNY   60  33  36 NW6       30.29F
WENDOVER       SUNNY     59  25  27 SE9       30.31F
HEBER CITY       N/A     55  23  28 N7        30.29F

$$

UTZ011>015-024>027-242000-

CENTRAL/NORTHEAST UTAH

CITY           SKY/WX    TMP DP  RH WIND       PRES   REMARKS
PROVO AIRPORT  SUNNY     57  31  37 VRB6      30.29F
MOAB/CANYONLAN SUNNY     69  19  15 S7        30.13F
DELTA          SUNNY     61  23  23 N7        30.27F
PRICE          SUNNY     64   9  11 N14G29    30.21F
VERNAL         SUNNY     56  23  27 NE18G30   30.33F

$$

UTZ013>016-019>022-027-242000-

SOUTHERN UTAH

CITY           SKY/WX    TMP DP  RH WIND       PRES   REMARKS
BRYCE CANYON   SUNNY     64  24  21 NW12G21   30.25F
CEDAR CITY     SUNNY     64  29  26 N9        30.22F
MILFORD        SUNNY     62  29  28 MISG      30.24F
ST GEORGE      CLEAR     76  29  17 CALM      30.06F
HANKSVILLE     MOSUNNY   70  16  12 N7        30.16F
BLANDING         N/A     71  24  17 SW3G25    30.21F

$$

REGIONAL REPORTS     COLORADO/ARIZONA

CITY           SKY/WX    TMP DP  RH WIND       PRES   REMARKS
CRAIG, CO      MOSUNNY   49  31  49 CALM      30.31F
GRAND JUNCTION PTSUNNY   67  32  27 NW9G20    30.16F
RIFLE, CO      PTSUNNY   60  31  33 NW17G24   30.22F
MONTROSE, CO   PTSUNNY   63  28  26 NW8       30.16F
CORTEZ, CO     SUNNY     73  22  14 NW13      30.14F
COLORADO CITY    N/A     75  27  16 NW12G21   30.15F
PAGE, AZ       SUNNY     77  24  14 VRB6      30.08F
GRAND CANYON   SUNNY     69  10  10 W10G20    30.22F
KINGMAN, AZ    SUNNY     85  26  11 W12       30.05F
FLAGSTAFF, AZ  SUNNY     68  19  15 S12G20    30.23F

$$

REGIONAL REPORTS    NEVADA/IDAHO/WYOMING

CITY           SKY/WX    TMP DP  RH WIND       PRES   REMARKS
LAS VEGAS, NV  MOSUNNY   83  25  12 CALM      30.03F
ELY, NY        SUNNY     58  21  24 N8        30.27F
ELKO, NV       SUNNY     61  17  18 E6        30.26F
POCATELLO, ID  MOSUNNY   55  33  43 NE9       30.37F
BURLEY, ID     SUNNY     55  27  34 E15G21    30.34F
FORT BRIDGER,  MOCLDY    44  24  44 SE14G20   30.43F
EVANSTON, WY   MOSUNNY   44  24  45 E10G18    30.38F
ROCK SPRINGS,  CLOUDY    42  20  41 NE16G26   30.41F
KEMMERER, WY   MOSUNNY   43  19  39 E13G21    30.41F

$$




USA.gov is the U.S. government's official web portal to all federal, state and local government web resources and services.